contact:dominique.lefevre@mio.osupytheas.fr, maurice.libes@osupytheas.fr, didier.mallarino@osupytheas.fr
Project:EMSO http://www.emso-fr.org/EMSO-France
Depth: 2436.0 m
Title:EMSO Ligure Ouest : Data MII capteur AQUADOPP
Date,Latitude,Longitude,X_East,Y_North,Z_Up,Amplitude_X,Amplitude_Y,Amplitude_Z,Batterie,SoundSpeed,Heading,Pitch,Roll,Pressure,TIS,Speed,Direction
, degrees North, degrees East, m.s-1, m.s-1,m.s-1, 1, 1, 1, Volt, m.s-1, degree, degree, degree, dbar, degree_C, m.s-1, degree
2019-06-23T00:09:04,42.805,6.029,-0.014,-0.007,-0.01,103.0,106.0,99.0,13.4,1505.2,325.8,-0.8,1.8,2470.279,13.29,0.015,243.4
2019-06-23T00:12:05,42.805,6.029,0.027,-0.02,-0.008,101.0,106.0,99.0,13.4,1505.3,324.2,-0.8,1.8,2470.244,13.31,0.033,126.5
2019-06-23T00:15:06,42.805,6.029,0.037,-0.032,0.017,101.0,107.0,99.0,13.3,1505.3,327.7,-0.8,1.9,2470.253,13.31,0.048,130.9
2019-06-23T00:18:07,42.805,6.029,-0.004,-0.015,-0.022,102.0,104.0,100.0,13.3,1505.3,323.7,-0.7,1.9,2470.2,13.32,0.015,194.9
2019-06-23T00:21:08,42.805,6.029,0.005,-0.018,-0.008,102.0,107.0,98.0,13.3,1505.3,325.6,-0.7,1.8,2470.265,13.32,0.018,164.5
2019-06-23T00:24:09,42.805,6.029,0.0,0.007,0.001,101.0,107.0,99.0,13.4,1505.3,328.4,-0.7,1.8,2470.225,13.33,0.007,0.0
2019-06-23T00:27:10,42.805,6.029,-0.041,-0.025,-0.042,102.0,105.0,99.0,13.4,1505.3,322.8,-0.7,1.8,2470.213,13.33,0.048,238.6
2019-06-23T00:30:11,42.805,6.029,0.0,0.007,-0.01,102.0,107.0,99.0,13.4,1505.3,323.5,-0.7,1.8,2470.237,13.33,0.007,0.0
2019-06-23T00:33:12,42.805,6.029,-0.034,-0.012,-0.056,101.0,105.0,99.0,13.3,1505.3,326.4,-0.7,1.8,2470.238,13.33,0.036,250.6
2019-06-23T00:36:13,42.805,6.029,0.008,-0.017,-0.004,102.0,106.0,100.0,13.3,1505.3,325.3,-0.8,1.8,2470.2,13.33,0.018,154.8
2019-06-23T00:39:14,42.805,6.029,-0.033,-0.008,-0.02,101.0,106.0,98.0,13.3,1505.3,327.4,-0.7,1.8,2470.18,13.33,0.033,256.4
2019-06-23T00:42:15,42.805,6.029,-0.034,-0.013,-0.041,100.0,107.0,98.0,13.4,1505.3,323.5,-0.7,1.8,2470.227,13.33,0.036,249.1
2019-06-23T00:45:16,42.805,6.029,0.008,0.021,-0.036,101.0,108.0,99.0,13.3,1505.3,323.7,-0.7,1.8,2470.194,13.33,0.022,20.9
2019-06-23T00:48:17,42.805,6.029,0.04,-0.013,0.016,102.0,108.0,97.0,13.4,1505.3,324.5,-0.8,1.8,2470.24,13.33,0.042,108.0
2019-06-23T00:51:18,42.805,6.029,0.021,-0.007,0.022,102.0,108.0,101.0,13.4,1505.3,324.5,-0.8,1.8,2470.242,13.33,0.022,108.4
2019-06-23T00:54:19,42.805,6.029,-0.012,-0.015,-0.009,102.0,108.0,100.0,13.3,1505.3,326.5,-0.8,1.8,2470.227,13.33,0.019,218.7
2019-06-23T00:57:20,42.805,6.029,0.032,-0.004,0.018,114.0,111.0,99.0,13.4,1505.3,325.0,-0.8,1.8,2470.248,13.33,0.032,97.1
2019-06-23T01:00:21,42.805,6.029,0.019,-0.004,-0.023,100.0,107.0,100.0,13.3,1505.3,326.8,-0.7,1.8,2470.186,13.33,0.019,101.9
2019-06-23T01:03:22,42.805,6.029,-0.021,0.006,-0.079,102.0,108.0,98.0,13.4,1505.3,323.4,-0.7,1.8,2470.191,13.33,0.021,285.9
2019-06-23T01:06:23,42.805,6.029,-0.021,-0.005,-0.03,102.0,107.0,98.0,13.4,1505.3,326.7,-0.7,1.9,2470.215,13.33,0.021,256.6
2019-06-23T01:09:24,42.805,6.029,-0.017,-0.031,-0.05,101.0,107.0,97.0,13.3,1505.3,325.4,-0.7,1.9,2470.169,13.33,0.035,208.7
2019-06-23T01:12:25,42.805,6.029,-0.007,-0.023,-0.044,102.0,106.0,99.0,13.4,1505.3,328.1,-0.8,1.8,2470.192,13.33,0.024,196.9
2019-06-23T01:15:26,42.805,6.029,0.001,0.018,-0.004,102.0,106.0,98.0,13.4,1505.3,326.2,-0.7,1.8,2470.17,13.33,0.018,3.2
2019-06-23T01:18:27,42.805,6.029,0.008,0.002,-0.03,102.0,107.0,99.0,13.4,1505.3,326.2,-0.7,1.9,2470.192,13.33,0.008,76.0
2019-06-23T01:21:28,42.805,6.029,-0.01,0.008,-0.029,101.0,105.0,99.0,13.4,1505.3,326.3,-0.7,1.9,2470.198,13.33,0.012,308.7
2019-06-23T01:24:29,42.805,6.029,0.006,-0.011,0.009,102.0,105.0,100.0,13.3,1505.3,323.7,-0.7,1.9,2470.175,13.33,0.012,151.4
2019-06-23T01:27:30,42.805,6.029,-0.006,-0.01,-0.025,101.0,105.0,99.0,13.3,1505.3,324.5,-0.7,1.9,2470.204,13.33,0.011,211.0
2019-06-23T01:30:31,42.805,6.029,0.01,-0.021,-0.002,105.0,106.0,99.0,13.3,1505.3,322.8,-0.8,1.8,2470.162,13.33,0.023,154.5
2019-06-23T01:33:32,42.805,6.029,-0.026,0.0,-0.015,103.0,105.0,98.0,13.3,1505.3,326.6,-0.8,1.8,2470.153,13.33,0.026,270.0
2019-06-23T01:36:33,42.805,6.029,0.007,-0.011,0.016,101.0,106.0,99.0,13.4,1505.3,327.1,-0.7,1.8,2470.169,13.33,0.013,147.5
2019-06-23T01:39:34,42.805,6.029,0.01,-0.003,-0.001,103.0,104.0,99.0,13.4,1505.3,327.6,-0.7,1.9,2470.175,13.33,0.01,106.7
2019-06-23T01:42:35,42.805,6.029,0.013,-0.006,-0.022,102.0,105.0,98.0,13.4,1505.3,327.1,-0.7,1.8,2470.152,13.33,0.014,114.8
2019-06-23T01:45:36,42.805,6.029,0.013,-0.007,0.003,102.0,106.0,98.0,13.3,1505.3,325.5,-0.7,1.8,2470.183,13.33,0.014,118.3
2019-06-23T01:48:37,42.805,6.029,0.0,-0.018,-0.023,101.0,104.0,98.0,13.4,1505.3,324.2,-0.8,1.9,2470.169,13.33,0.018,180.0
2019-06-23T01:51:38,42.805,6.029,-0.006,-0.034,-0.001,101.0,105.0,99.0,13.4,1505.3,326.0,-0.7,1.8,2470.154,13.33,0.034,190.0
2019-06-23T01:54:39,42.805,6.029,0.0,0.009,0.001,100.0,105.0,100.0,13.4,1505.3,327.4,-0.7,1.8,2470.154,13.33,0.009,0.0
2019-06-23T01:57:40,42.805,6.029,-0.005,-0.01,-0.018,101.0,105.0,99.0,13.4,1505.3,323.3,-0.7,1.9,2470.147,13.33,0.011,206.6
2019-06-23T02:00:41,42.805,6.029,-0.018,0.006,-0.008,103.0,104.0,97.0,13.4,1505.3,326.9,-0.7,1.9,2470.141,13.33,0.018,288.4
2019-06-23T02:03:42,42.805,6.029,-0.027,-0.005,-0.033,102.0,105.0,99.0,13.4,1505.3,324.8,-0.8,1.8,2470.138,13.33,0.027,259.5
2019-06-23T02:06:43,42.805,6.029,-0.006,-0.013,-0.002,101.0,106.0,99.0,13.3,1505.3,325.9,-0.7,1.8,2470.138,13.33,0.014,204.8
2019-06-23T02:09:44,42.805,6.029,-0.003,-0.004,-0.005,102.0,105.0,98.0,13.4,1505.3,323.4,-0.7,1.8,2470.14,13.33,0.005,216.9
2019-06-23T02:12:45,42.805,6.029,0.0,-0.006,-0.023,102.0,105.0,98.0,13.3,1505.3,326.9,-0.7,1.8,2470.164,13.33,0.006,180.0
2019-06-23T02:15:46,42.805,6.029,0.015,0.01,-0.057,102.0,106.0,99.0,13.3,1505.3,325.6,-0.8,1.9,2470.166,13.33,0.018,56.3
2019-06-23T02:18:47,42.805,6.029,-0.016,-0.018,-0.042,101.0,112.0,98.0,13.3,1505.3,327.5,-0.7,1.8,2470.173,13.33,0.024,221.6
2019-06-23T02:21:48,42.805,6.029,0.003,-0.018,-0.027,101.0,106.0,99.0,13.4,1505.3,322.8,-0.8,1.8,2470.115,13.33,0.018,170.5
2019-06-23T02:24:49,42.805,6.029,-0.017,-0.013,0.0,104.0,104.0,100.0,13.4,1505.3,326.1,-0.7,1.8,2470.128,13.33,0.021,232.6
2019-06-23T02:27:50,42.805,6.029,-0.001,-0.002,-0.01,102.0,105.0,98.0,13.4,1505.3,326.3,-0.8,1.9,2470.148,13.33,0.002,206.6
2019-06-23T02:30:51,42.805,6.029,0.025,-0.033,-0.011,101.0,106.0,99.0,13.4,1505.3,327.0,-0.7,1.8,2470.131,13.33,0.041,142.8
2019-06-23T02:33:52,42.805,6.029,-0.003,0.005,-0.015,102.0,105.0,98.0,13.4,1505.3,326.6,-0.8,1.8,2470.164,13.33,0.005,329.0
2019-06-23T02:36:53,42.805,6.029,0.006,0.003,-0.006,103.0,107.0,98.0,13.3,1505.3,325.8,-0.7,1.8,2470.143,13.33,0.006,63.4
2019-06-23T02:39:54,42.805,6.029,0.005,-0.006,0.017,102.0,106.0,99.0,13.4,1505.3,324.7,-0.7,1.9,2470.12,13.33,0.007,140.2
2019-06-23T02:42:55,42.805,6.029,-0.006,0.017,-0.017,101.0,106.0,97.0,13.3,1505.3,324.6,-0.8,1.9,2470.162,13.33,0.018,340.6
2019-06-23T02:45:56,42.805,6.029,0.019,-0.001,-0.007,103.0,107.0,100.0,13.4,1505.3,323.0,-0.8,1.8,2470.088,13.33,0.019,93.0
2019-06-23T02:48:57,42.805,6.029,0.004,-0.015,-0.006,105.0,105.0,99.0,13.4,1505.3,327.1,-0.7,1.8,2470.128,13.33,0.015,165.1
2019-06-23T02:51:58,42.805,6.029,0.042,0.012,0.0,102.0,106.0,98.0,13.3,1505.3,328.1,-0.7,1.9,2470.169,13.33,0.043,74.1
2019-06-23T02:54:59,42.805,6.029,0.015,-0.007,0.01,103.0,105.0,100.0,13.4,1505.3,325.0,-0.7,1.9,2470.062,13.33,0.016,115.0
2019-06-23T02:58:00,42.805,6.029,0.039,0.012,0.025,100.0,106.0,98.0,13.3,1505.4,325.2,-0.7,1.9,2470.126,13.34,0.04,72.9
2019-06-23T03:01:01,42.805,6.029,0.044,-0.012,0.031,101.0,106.0,97.0,13.3,1505.4,327.5,-0.7,1.8,2470.137,13.34,0.045,105.3
2019-06-23T03:04:02,42.805,6.029,0.054,-0.02,0.018,101.0,106.0,99.0,13.4,1505.4,326.3,-0.7,1.8,2470.144,13.34,0.057,110.3
2019-06-23T03:07:03,42.805,6.029,0.043,-0.015,-0.001,102.0,105.0,99.0,13.4,1505.4,327.5,-0.7,1.8,2470.079,13.34,0.045,109.2
2019-06-23T03:10:04,42.805,6.029,0.049,-0.011,0.038,101.0,106.0,99.0,13.4,1505.4,326.7,-0.7,1.8,2470.102,13.34,0.05,102.7
2019-06-23T03:13:05,42.805,6.029,0.039,-0.019,0.001,103.0,106.0,98.0,13.4,1505.4,327.4,-0.7,1.8,2470.119,13.34,0.043,116.0
2019-06-23T03:16:06,42.805,6.029,0.042,-0.009,-0.001,102.0,106.0,99.0,13.4,1505.3,323.6,-0.7,1.8,2470.142,13.33,0.042,102.1
2019-06-23T03:19:07,42.805,6.029,0.036,-0.01,0.032,106.0,106.0,98.0,13.4,1505.3,326.5,-0.7,1.8,2470.129,13.33,0.037,105.5
2019-06-23T03:22:08,42.805,6.029,0.038,0.004,0.026,102.0,105.0,99.0,13.3,1505.3,326.4,-0.7,1.8,2470.138,13.33,0.038,84.0
2019-06-23T03:25:09,42.805,6.029,0.037,0.008,0.028,102.0,106.0,98.0,13.4,1505.3,323.5,-0.7,1.9,2470.107,13.33,0.037,77.8
2019-06-23T03:28:10,42.805,6.029,0.038,-0.001,0.013,105.0,107.0,99.0,13.3,1505.4,326.5,-0.7,1.8,2470.173,13.34,0.038,91.5
2019-06-23T03:31:11,42.805,6.029,0.06,-0.004,0.035,103.0,107.0,98.0,13.4,1505.4,323.9,-0.7,1.9,2470.144,13.34,0.06,93.8
2019-06-23T03:34:12,42.805,6.029,0.044,-0.008,0.018,103.0,106.0,99.0,13.4,1505.4,323.1,-0.7,1.8,2470.12,13.34,0.044,100.3
2019-06-23T03:37:13,42.805,6.029,0.056,0.003,0.024,100.0,107.0,99.0,13.4,1505.4,326.4,-0.7,1.9,2470.092,13.34,0.056,86.9
2019-06-23T03:40:14,42.805,6.029,0.056,-0.009,0.019,102.0,105.0,98.0,13.4,1505.3,328.0,-0.7,1.8,2470.091,13.33,0.056,99.1
2019-06-23T03:43:15,42.805,6.029,0.054,0.008,0.055,102.0,107.0,98.0,13.4,1505.3,323.9,-0.7,1.8,2470.092,13.33,0.054,81.6
2019-06-23T03:46:16,42.805,6.029,0.062,0.009,0.057,101.0,106.0,98.0,13.4,1505.4,324.8,-0.7,1.8,2470.095,13.34,0.062,81.7
2019-06-23T03:49:17,42.805,6.029,0.033,0.011,0.049,101.0,106.0,99.0,13.4,1505.4,325.6,-0.7,1.9,2470.071,13.34,0.034,71.6
2019-06-23T03:52:18,42.805,6.029,0.06,0.001,0.021,103.0,105.0,99.0,13.4,1505.4,323.6,-0.7,1.8,2470.089,13.34,0.06,89.0
2019-06-23T03:55:19,42.805,6.029,0.057,-0.003,0.035,103.0,107.0,98.0,13.4,1505.4,326.2,-0.7,1.8,2470.082,13.34,0.057,93.0
2019-06-23T03:58:20,42.805,6.029,0.041,0.015,0.032,103.0,105.0,98.0,13.4,1505.4,326.8,-0.7,1.9,2470.076,13.34,0.043,69.9
2019-06-23T04:01:21,42.805,6.029,0.028,-0.006,0.032,101.0,107.0,98.0,13.4,1505.4,325.0,-0.7,1.8,2470.105,13.34,0.028,102.1
2019-06-23T04:04:22,42.805,6.029,0.046,-0.026,0.036,103.0,106.0,100.0,13.4,1505.4,326.2,-0.7,1.9,2470.106,13.34,0.052,119.5
2019-06-23T04:07:23,42.805,6.029,0.037,0.0,0.05,101.0,106.0,100.0,13.4,1505.4,325.9,-0.7,1.9,2470.077,13.34,0.037,90.0
2019-06-23T04:10:24,42.805,6.029,0.069,0.003,0.041,102.0,106.0,99.0,13.4,1505.4,327.3,-0.7,1.8,2470.09,13.34,0.069,87.5
2019-06-23T04:13:25,42.805,6.029,0.053,-0.009,0.011,102.0,105.0,99.0,13.4,1505.4,325.1,-0.7,1.9,2470.092,13.34,0.053,99.6
2019-06-23T04:16:26,42.805,6.029,0.033,-0.002,0.015,100.0,105.0,99.0,13.4,1505.4,324.4,-0.7,1.8,2470.108,13.34,0.033,93.5
2019-06-23T04:19:27,42.805,6.029,0.018,0.009,0.017,104.0,105.0,97.0,13.4,1505.4,327.8,-0.7,1.8,2470.065,13.34,0.02,63.4
2019-06-23T04:22:28,42.805,6.029,0.075,-0.001,0.052,100.0,107.0,98.0,13.3,1505.4,327.2,-0.7,1.9,2470.122,13.34,0.075,90.8
2019-06-23T04:25:29,42.805,6.029,0.055,0.0,0.016,101.0,106.0,97.0,13.3,1505.4,324.7,-0.7,1.9,2470.08,13.34,0.055,90.0
2019-06-23T04:28:30,42.805,6.029,0.048,-0.005,0.019,102.0,105.0,98.0,13.4,1505.4,325.8,-0.7,1.9,2470.041,13.34,0.048,95.9
2019-06-23T04:31:31,42.805,6.029,0.037,-0.005,0.023,101.0,108.0,98.0,13.4,1505.4,325.4,-0.7,1.9,2470.14,13.34,0.037,97.7
2019-06-23T04:34:32,42.805,6.029,0.075,0.014,0.064,102.0,107.0,99.0,13.4,1505.4,323.2,-0.7,1.9,2470.1,13.34,0.076,79.4
2019-06-23T04:37:33,42.805,6.029,0.076,-0.012,0.044,105.0,106.0,98.0,13.3,1505.4,323.2,-0.7,1.9,2470.064,13.34,0.076,99.0
2019-06-23T04:40:34,42.805,6.029,0.065,-0.016,0.008,104.0,108.0,99.0,13.4,1505.4,325.4,-0.8,1.8,2470.044,13.34,0.066,103.8
2019-06-23T04:43:35,42.805,6.029,0.063,-0.009,0.033,103.0,106.0,98.0,13.4,1505.4,327.5,-0.7,1.9,2470.089,13.34,0.063,98.1
2019-06-23T04:46:36,42.805,6.029,0.051,-0.012,0.041,104.0,105.0,100.0,13.4,1505.4,323.8,-0.7,1.8,2470.093,13.34,0.052,103.2
2019-06-23T04:49:37,42.805,6.029,0.062,0.002,0.036,103.0,106.0,103.0,13.4,1505.4,324.2,-0.7,1.8,2470.084,13.34,0.062,88.2
2019-06-23T04:52:38,42.805,6.029,0.061,-0.011,0.018,100.0,106.0,103.0,13.4,1505.4,325.9,-0.7,1.8,2470.11,13.34,0.061,100.2
2019-06-23T04:55:39,42.805,6.029,0.051,-0.002,0.066,104.0,107.0,98.0,13.3,1505.4,323.5,-0.7,1.8,2470.085,13.34,0.051,92.2
2019-06-23T04:58:40,42.805,6.029,0.051,-0.003,0.037,102.0,106.0,99.0,13.4,1505.4,326.6,-0.7,1.8,2470.094,13.34,0.051,93.4
2019-06-23T05:01:41,42.805,6.029,0.058,-0.027,0.031,103.0,105.0,100.0,13.3,1505.4,327.9,-0.7,1.8,2470.116,13.34,0.063,115.0
2019-06-23T05:04:42,42.805,6.029,0.052,-0.007,0.041,103.0,106.0,98.0,13.3,1505.4,323.5,-0.7,1.8,2470.041,13.34,0.052,97.7
2019-06-23T05:07:43,42.805,6.029,0.052,-0.014,0.027,101.0,105.0,99.0,13.3,1505.4,327.1,-0.7,1.9,2470.084,13.34,0.053,105.1
2019-06-23T05:10:44,42.805,6.029,0.053,-0.011,0.04,104.0,107.0,96.0,13.4,1505.4,328.4,-0.7,1.8,2470.061,13.34,0.054,101.7
2019-06-23T05:13:45,42.805,6.029,0.045,0.011,0.026,100.0,107.0,98.0,13.4,1505.4,323.2,-0.7,1.8,2470.137,13.34,0.046,76.3
2019-06-23T05:16:46,42.805,6.029,0.042,-0.014,-0.008,102.0,105.0,98.0,13.4,1505.4,324.5,-0.7,1.8,2470.056,13.34,0.044,108.4
2019-06-23T05:19:47,42.805,6.029,0.003,0.018,-0.002,102.0,107.0,97.0,13.4,1505.4,325.9,-0.8,1.8,2470.076,13.34,0.018,9.5
2019-06-23T05:22:48,42.805,6.029,0.039,-0.002,-0.002,101.0,105.0,98.0,13.3,1505.3,326.6,-0.7,1.9,2470.092,13.33,0.039,92.9
2019-06-23T05:25:49,42.805,6.029,0.026,0.005,0.007,102.0,105.0,97.0,13.3,1505.3,327.0,-0.7,1.8,2470.06,13.33,0.026,79.1
2019-06-23T05:28:50,42.805,6.029,0.025,-0.002,0.01,102.0,106.0,97.0,13.4,1505.3,327.2,-0.7,1.9,2470.111,13.33,0.025,94.6
2019-06-23T05:31:51,42.805,6.029,0.019,-0.013,-0.015,102.0,105.0,98.0,13.3,1505.3,326.2,-0.8,1.9,2470.056,13.33,0.023,124.4
2019-06-23T05:34:52,42.805,6.029,0.028,-0.012,0.044,99.0,105.0,100.0,13.4,1505.3,324.8,-0.7,1.8,2470.083,13.33,0.03,113.2
2019-06-23T05:37:53,42.805,6.029,0.021,0.006,0.036,101.0,105.0,100.0,13.4,1505.4,326.1,-0.7,1.8,2470.047,13.34,0.021,74.1
2019-06-23T05:40:54,42.805,6.029,0.05,0.023,0.032,104.0,106.0,99.0,13.3,1505.4,324.8,-0.7,1.8,2470.064,13.34,0.055,65.3
2019-06-23T05:43:55,42.805,6.029,0.054,0.0,0.044,101.0,105.0,99.0,13.3,1505.4,328.0,-0.7,1.8,2470.078,13.34,0.053,90.0
2019-06-23T05:46:56,42.805,6.029,0.056,-0.005,0.015,103.0,108.0,98.0,13.3,1505.4,322.8,-0.7,1.8,2470.078,13.34,0.056,95.1
2019-06-23T05:49:57,42.805,6.029,0.044,0.011,0.032,104.0,104.0,98.0,13.4,1505.4,325.8,-0.7,1.8,2470.016,13.34,0.045,76.0
2019-06-23T05:52:58,42.805,6.029,0.063,-0.003,0.029,102.0,105.0,100.0,13.4,1505.4,326.6,-0.7,1.9,2470.08,13.34,0.063,92.7
2019-06-23T05:55:59,42.805,6.029,0.048,0.0,0.037,101.0,107.0,98.0,13.4,1505.4,328.3,-0.7,1.8,2470.099,13.34,0.048,90.0
2019-06-23T05:59:00,42.805,6.029,0.055,-0.001,0.028,104.0,105.0,99.0,13.3,1505.4,327.4,-0.7,1.8,2470.045,13.34,0.055,91.0
2019-06-23T06:02:01,42.805,6.029,0.053,0.014,0.012,103.0,105.0,98.0,13.4,1505.4,323.7,-0.7,1.8,2470.055,13.34,0.054,75.2
2019-06-23T06:05:02,42.805,6.029,0.042,0.0,-0.006,104.0,105.0,98.0,13.4,1505.4,326.4,-0.7,1.9,2470.039,13.34,0.042,90.0
2019-06-23T06:08:03,42.805,6.029,0.057,-0.014,0.015,102.0,105.0,98.0,13.4,1505.4,326.6,-0.7,1.9,2470.076,13.34,0.058,103.8
2019-06-23T06:11:04,42.805,6.029,0.039,-0.006,0.046,103.0,105.0,97.0,13.4,1505.4,324.9,-0.7,1.8,2470.082,13.34,0.039,98.7
2019-06-23T06:14:05,42.805,6.029,0.034,-0.013,0.04,101.0,106.0,98.0,13.4,1505.4,328.2,-0.7,1.9,2470.086,13.34,0.036,110.9
2019-06-23T06:17:06,42.805,6.029,0.047,0.017,0.043,102.0,106.0,99.0,13.4,1505.4,328.3,-0.7,1.9,2470.097,13.34,0.049,70.1
2019-06-23T06:20:07,42.805,6.029,0.044,-0.016,0.021,101.0,105.0,98.0,13.4,1505.4,327.9,-0.7,1.9,2470.059,13.34,0.046,110.0
2019-06-23T06:23:08,42.805,6.029,0.021,-0.014,0.022,102.0,106.0,99.0,13.4,1505.4,327.2,-0.7,1.8,2470.093,13.34,0.025,123.7
2019-06-23T06:26:09,42.805,6.029,0.05,0.006,0.043,103.0,105.0,99.0,13.4,1505.4,325.6,-0.7,1.8,2470.093,13.34,0.05,83.2
2019-06-23T06:29:10,42.805,6.029,0.031,0.014,-0.012,102.0,105.0,99.0,13.4,1505.4,327.8,-0.7,1.8,2470.075,13.34,0.034,65.7
2019-06-23T06:32:11,42.805,6.029,0.053,0.003,0.027,102.0,106.0,99.0,13.4,1505.4,323.1,-0.8,1.9,2470.1,13.34,0.053,86.8
2019-06-23T06:35:12,42.805,6.029,0.054,-0.014,0.038,101.0,106.0,99.0,13.4,1505.4,326.1,-0.8,1.8,2470.041,13.34,0.055,104.5
2019-06-23T06:38:13,42.805,6.029,0.011,-0.017,0.009,102.0,105.0,98.0,13.4,1505.3,327.5,-0.7,1.9,2470.067,13.33,0.02,147.1
2019-06-23T06:41:14,42.805,6.029,0.033,-0.003,0.029,101.0,104.0,99.0,13.4,1505.3,326.7,-0.7,1.8,2470.08,13.33,0.033,95.2
2019-06-23T06:44:15,42.805,6.029,0.012,0.004,-0.009,102.0,105.0,98.0,13.3,1505.3,323.2,-0.7,1.8,2470.045,13.33,0.012,71.6
2019-06-23T06:47:16,42.805,6.029,0.033,-0.01,-0.022,101.0,105.0,98.0,13.4,1505.3,326.2,-0.7,1.8,2470.046,13.33,0.034,106.9
2019-06-23T06:50:17,42.805,6.029,0.053,0.016,0.02,101.0,104.0,98.0,13.4,1505.3,326.4,-0.7,1.8,2470.041,13.33,0.055,73.2
2019-06-23T06:53:18,42.805,6.029,0.049,0.002,0.038,102.0,105.0,99.0,13.4,1505.3,325.1,-0.7,1.8,2470.061,13.33,0.049,87.7
2019-06-23T06:56:19,42.805,6.029,0.052,-0.004,0.007,102.0,106.0,99.0,13.4,1505.3,324.6,-0.7,1.9,2470.067,13.33,0.052,94.4
2019-06-23T06:59:20,42.805,6.029,0.04,0.01,0.038,102.0,105.0,99.0,13.3,1505.3,323.1,-0.8,1.8,2470.047,13.33,0.041,76.0
2019-06-23T07:02:21,42.805,6.029,0.056,-0.014,0.036,103.0,104.0,101.0,13.4,1505.3,324.1,-0.7,1.8,2470.052,13.33,0.057,104.0
2019-06-23T07:05:22,42.805,6.029,0.028,0.005,0.008,104.0,106.0,98.0,13.4,1505.3,327.4,-0.8,1.9,2470.077,13.33,0.028,79.9
2019-06-23T07:08:23,42.805,6.029,0.037,-0.013,0.022,103.0,105.0,98.0,13.4,1505.4,328.3,-0.7,1.8,2470.065,13.34,0.039,109.4
2019-06-23T07:11:24,42.805,6.029,0.042,0.017,0.014,103.0,105.0,99.0,13.4,1505.3,324.9,-0.7,1.8,2470.09,13.33,0.045,68.0
2019-06-23T07:14:25,42.805,6.029,0.048,-0.012,-0.008,101.0,106.0,99.0,13.4,1505.3,325.3,-0.7,1.9,2470.119,13.33,0.049,104.0
2019-06-23T07:17:26,42.805,6.029,0.045,0.003,0.049,102.0,106.0,98.0,13.4,1505.3,326.5,-0.7,1.9,2470.07,13.33,0.045,86.2
2019-06-23T07:20:27,42.805,6.029,0.027,-0.016,0.001,101.0,107.0,98.0,13.3,1505.3,324.7,-0.7,1.8,2470.049,13.33,0.031,120.7
2019-06-23T07:23:28,42.805,6.029,0.014,-0.016,0.015,103.0,106.0,99.0,13.4,1505.3,324.9,-0.7,1.8,2470.065,13.33,0.021,138.8
2019-06-23T07:26:29,42.805,6.029,0.023,0.006,0.002,102.0,106.0,98.0,13.4,1505.4,326.9,-0.7,1.8,2470.082,13.34,0.023,75.4
2019-06-23T07:29:30,42.805,6.029,0.024,-0.013,-0.015,102.0,106.0,99.0,13.4,1505.3,325.6,-0.7,1.9,2470.071,13.33,0.027,118.4
2019-06-23T07:32:31,42.805,6.029,0.012,-0.011,0.017,105.0,106.0,100.0,13.3,1505.3,327.3,-0.7,1.8,2470.082,13.33,0.016,132.5
2019-06-23T07:35:32,42.805,6.029,0.031,-0.01,-0.003,101.0,106.0,99.0,13.3,1505.3,326.4,-0.7,1.8,2470.055,13.33,0.032,107.9
2019-06-23T07:38:33,42.805,6.029,-0.003,0.0,0.007,103.0,106.0,99.0,13.4,1505.3,324.5,-0.7,1.8,2470.025,13.33,0.003,270.0
2019-06-23T07:41:34,42.805,6.029,0.008,-0.005,0.008,102.0,104.0,100.0,13.3,1505.3,324.4,-0.7,1.8,2470.08,13.33,0.009,122.0
2019-06-23T07:44:35,42.805,6.029,-0.02,-0.02,-0.033,102.0,103.0,99.0,13.4,1505.3,325.3,-0.8,1.8,2470.035,13.33,0.028,225.0
2019-06-23T07:47:36,42.805,6.029,0.005,-0.016,-0.014,102.0,104.0,98.0,13.4,1505.3,326.9,-0.7,1.9,2470.049,13.33,0.016,162.6
2019-06-23T07:50:37,42.805,6.029,0.007,-0.024,0.001,102.0,105.0,100.0,13.4,1505.3,323.3,-0.7,1.8,2470.052,13.33,0.025,163.7
2019-06-23T07:53:38,42.805,6.029,-0.027,-0.014,-0.056,103.0,105.0,97.0,13.4,1505.3,323.7,-0.7,1.8,2470.135,13.33,0.03,242.6
2019-06-23T07:56:39,42.805,6.029,-0.005,-0.024,-0.02,101.0,104.0,100.0,13.3,1505.3,325.5,-0.8,1.9,2470.082,13.33,0.024,191.8
2019-06-23T07:59:40,42.805,6.029,0.003,-0.016,-0.039,103.0,105.0,98.0,13.4,1505.3,324.4,-0.8,1.8,2470.077,13.33,0.016,169.4
2019-06-23T08:02:41,42.805,6.029,0.005,0.003,-0.024,104.0,104.0,100.0,13.4,1505.3,325.9,-0.7,1.9,2470.084,13.33,0.005,59.0
2019-06-23T08:05:42,42.805,6.029,0.02,0.008,0.014,101.0,104.0,97.0,13.3,1505.3,326.4,-0.7,1.8,2470.057,13.33,0.021,68.2
2019-06-23T08:08:43,42.805,6.029,0.045,0.004,0.005,102.0,107.0,98.0,13.4,1505.3,326.7,-0.7,1.8,2470.106,13.33,0.045,84.9
2019-06-23T08:11:44,42.805,6.029,0.014,-0.024,-0.014,101.0,105.0,97.0,13.4,1505.3,326.1,-0.8,1.8,2470.075,13.33,0.027,149.7
2019-06-23T08:14:45,42.805,6.029,0.048,0.014,0.06,100.0,106.0,98.0,13.4,1505.3,326.5,-0.8,1.8,2470.066,13.33,0.05,73.7
2019-06-23T08:17:46,42.805,6.029,0.017,0.002,0.009,100.0,105.0,98.0,13.3,1505.3,322.7,-0.7,1.8,2470.098,13.33,0.017,83.3
2019-06-23T08:20:47,42.805,6.029,0.036,-0.006,0.01,99.0,105.0,98.0,13.4,1505.3,323.8,-0.7,1.8,2470.074,13.33,0.036,99.5
2019-06-23T08:23:48,42.805,6.029,0.04,0.001,0.009,98.0,105.0,99.0,13.4,1505.3,325.6,-0.7,1.9,2470.092,13.33,0.04,88.6
2019-06-23T08:26:49,42.805,6.029,0.071,0.002,0.038,101.0,104.0,97.0,13.4,1505.4,328.3,-0.7,1.8,2470.066,13.34,0.071,88.4
2019-06-23T08:29:50,42.805,6.029,0.064,-0.002,0.083,100.0,105.0,97.0,13.4,1505.4,323.8,-0.8,1.8,2470.093,13.34,0.064,91.8
2019-06-23T08:32:51,42.805,6.029,0.061,0.007,0.06,100.0,106.0,98.0,13.4,1505.4,323.1,-0.7,1.9,2470.119,13.34,0.061,83.5
2019-06-23T08:35:52,42.805,6.029,0.078,0.006,0.029,99.0,106.0,97.0,13.4,1505.4,325.8,-0.8,1.8,2470.11,13.34,0.078,85.6
2019-06-23T08:38:53,42.805,6.029,0.074,0.006,0.028,102.0,105.0,98.0,13.4,1505.4,324.6,-0.7,1.9,2470.098,13.34,0.074,85.4
2019-06-23T08:41:54,42.805,6.029,0.049,0.012,0.057,101.0,106.0,99.0,13.4,1505.4,326.9,-0.8,1.8,2470.081,13.34,0.05,76.2
2019-06-23T08:44:55,42.805,6.029,0.036,0.0,0.063,102.0,105.0,98.0,13.4,1505.4,328.0,-0.7,1.8,2470.088,13.34,0.036,90.0
2019-06-23T08:47:56,42.805,6.029,0.066,0.005,0.051,101.0,106.0,98.0,13.4,1505.4,323.6,-0.7,1.9,2470.094,13.34,0.066,85.7
2019-06-23T08:50:57,42.805,6.029,0.034,0.0,0.029,100.0,107.0,98.0,13.3,1505.4,323.2,-0.8,1.8,2470.084,13.34,0.034,90.0
2019-06-23T08:53:58,42.805,6.029,0.041,0.004,0.045,100.0,106.0,98.0,13.4,1505.4,325.7,-0.7,1.8,2470.074,13.34,0.041,84.4
2019-06-23T08:56:59,42.805,6.029,0.066,0.02,0.074,99.0,105.0,98.0,13.4,1505.4,323.3,-0.7,1.8,2470.103,13.34,0.068,73.1
2019-06-23T09:00:00,42.805,6.029,0.062,0.013,0.049,101.0,106.0,99.0,13.4,1505.4,325.4,-0.7,1.9,2470.099,13.34,0.063,78.2
2019-06-23T09:03:01,42.805,6.029,0.049,-0.005,0.031,101.0,105.0,100.0,13.4,1505.4,324.9,-0.7,1.8,2470.061,13.34,0.049,95.8
2019-06-23T09:06:02,42.805,6.029,0.041,-0.007,0.035,98.0,105.0,100.0,13.3,1505.4,323.1,-0.7,1.9,2470.075,13.34,0.041,99.7
2019-06-23T09:09:03,42.805,6.029,0.042,0.002,0.037,101.0,105.0,99.0,13.4,1505.4,326.6,-0.7,1.8,2470.083,13.34,0.042,87.3
2019-06-23T09:12:04,42.805,6.029,0.057,0.009,0.06,99.0,106.0,100.0,13.3,1505.4,325.3,-0.7,1.9,2470.14,13.34,0.057,81.0
2019-06-23T09:15:05,42.805,6.029,0.055,-0.023,0.001,101.0,109.0,97.0,13.4,1505.4,327.8,-0.7,1.9,2470.096,13.34,0.059,112.7
2019-06-23T09:18:06,42.805,6.029,0.041,0.008,0.027,100.0,107.0,98.0,13.4,1505.4,324.8,-0.7,1.8,2470.126,13.34,0.041,79.0
2019-06-23T09:21:07,42.805,6.029,0.07,0.003,0.062,101.0,106.0,98.0,13.4,1505.4,326.6,-0.7,1.9,2470.105,13.34,0.07,87.6
2019-06-23T09:24:08,42.805,6.029,0.059,0.011,0.046,103.0,104.0,99.0,13.4,1505.4,326.8,-0.7,1.9,2470.099,13.34,0.06,79.4
2019-06-23T09:27:09,42.805,6.029,0.058,0.01,0.035,99.0,105.0,99.0,13.4,1505.4,324.8,-0.7,1.8,2470.126,13.34,0.058,80.2
2019-06-23T09:30:10,42.805,6.029,0.045,-0.004,0.051,99.0,105.0,97.0,13.4,1505.4,328.3,-0.7,1.9,2470.066,13.34,0.045,95.1
2019-06-23T09:33:11,42.805,6.029,0.075,-0.002,0.05,99.0,106.0,96.0,13.3,1505.4,323.9,-0.7,1.9,2470.094,13.34,0.075,91.5
2019-06-23T09:36:12,42.805,6.029,0.063,0.001,0.053,101.0,105.0,96.0,13.4,1505.4,324.7,-0.7,1.8,2470.113,13.34,0.063,89.1
2019-06-23T09:39:13,42.805,6.029,0.058,0.001,0.057,99.0,105.0,99.0,13.4,1505.4,325.9,-0.7,1.8,2470.122,13.34,0.058,89.0
2019-06-23T09:42:14,42.805,6.029,0.066,0.013,0.051,100.0,105.0,97.0,13.4,1505.4,327.0,-0.7,1.8,2470.086,13.34,0.067,78.9
2019-06-23T09:45:15,42.805,6.029,0.079,0.013,0.087,98.0,105.0,97.0,13.4,1505.4,327.9,-0.7,1.8,2470.13,13.34,0.08,80.7